Regional Weather Roundup
Issued by NWS Raleigh/Durham, NC

Home | Current Version | Previous Version | Text Only | Print | Product List | Glossary On
Versions: 1 2 3 4 5 6 7 8 9 10 11 12 13 14 15 16 17 18 19 20 21 22 23 24 25 26 27 28 29 30 31 32 33 34 35 36 37 38 39 40 41 42 43 44 45 46 47 48 49 50
000
ASUS42 KRAH 031510
RWRRAH
NORTH CAROLINA WEATHER ROUNDUP
NATIONAL WEATHER SERVICE RALEIGH NC
1000 AM EST TUE MAR 03 2015

NOTE: "FAIR" INDICATES FEW OR NO CLOUDS BELOW 12,000 FEET WITH NO
SIGNIFICANT WEATHER AND/OR OBSTRUCTIONS TO VISIBILITY.

NCZ001-053-055-056-065-067-031600-
WESTERN NORTH CAROLINA

CITY           SKY/WX    TMP DP  RH WIND       PRES   REMARKS
ASHEVILLE      CLOUDY    42  34  73 S8        30.28S
JEFFERSON      LGT RAIN  34  25  69 S5        30.25F WCI  30
MORGANTON      CLOUDY    40  30  66 SE3       30.38R
HICKORY        CLOUDY    36  34  92 N3        30.34R FOG
RUTHERFORDTON  CLOUDY    45  29  54 CALM      30.33R
MOUNT AIRY     CLOUDY    38  33  84 E5        30.36S FOG     WCI  34
BOONE          CLOUDY    35  34  97 SE5       30.26S WCI  31
$$

NCZ021-022-025-041-071-084-088-031600-
CENTRAL NORTH CAROLINA

CITY           SKY/WX    TMP DP  RH WIND       PRES   REMARKS
CHARLOTTE      LGT RAIN  39  36  87 E7        30.34S FOG     WCI  34
GREENSBORO     CLOUDY    40  28  62 CALM      30.35S
WINSTON-SALEM  CLOUDY    40  24  53 SE6       30.37R
RALEIGH-DURHAM CLOUDY    37  17  44 E12       30.39F WCI  29
FORT BRAGG     CLOUDY    40  22  49 E10       30.36S WCI  33
FAYETTEVILLE   CLOUDY    41  23  48 E8        30.36F
BURLINGTON     CLOUDY    40  22  48 E8        30.36F WCI  34
LAURINBURG     CLOUDY    41  27  57 E12       30.36F
$$

NCZ011-015-027-028-043-044-047-080-103-031600-
NORTHEASTERN NORTH CAROLINA

CITY           SKY/WX    TMP DP  RH WIND       PRES   REMARKS
ROCKY MT-WILSO CLOUDY    37  21  52 NE8       30.42F WCI  31
GREENVILLE     PTSUNNY   37  27  65 E6        30.40F WCI  33
WASHINGTON     CLOUDY    37  27  68 NE5       30.42F WCI  33
ELIZABETH CITY CLOUDY    40  28  62 NE12      30.43F WCI  33
MANTEO         MOSUNNY   43  30  61 NE12      30.41S
CAPE HATTERAS  CLOUDY    44  36  73 VRB6G17   30.38F
$$

NCZ078-087-090-091-093-098-101-031600-
SOUTHEASTERN NORTH CAROLINA

CITY           SKY/WX    TMP DP  RH WIND       PRES   REMARKS
LUMBERTON      LGT RAIN  41  27  57 E9        30.34F
GOLDSBORO      MIX PCPN  37  32  81 NE9       30.38R WCI  31
KINSTON        PTSUNNY   39  23  52 NE7       30.41F WCI  34
KENANSVILLE    CLOUDY    38  28  65 NE5       30.38F WCI  35
NEW BERN       CLOUDY    41  28  60 NE7       30.41R
CHERRY POINT   CLOUDY    42  30  62 NE10      30.41R
BEAUFORT       CLOUDY    42  33  70 N13       30.39S
JACKSONVILLE   NOT AVBL
WILMINGTON     LGT RAIN  42  31  64 NE8       30.36R
$$




USA.gov is the U.S. government's official web portal to all federal, state and local government web resources and services.